^^
WestSenecaWeather Station Historical Data
 
Daily Summary for August 15, 2018 Units:  English    Metric   Both
Daily Weekly Monthly Yearly Custom
  Current: High: Low: Average:
Temperature: 69.5 °F 74.1 °F 69.4 °F 71 °F
Dew Point: 68.3 °F 69.6 °F 65.7 °F 68.4 °F
Humidity: 96% 96% 82% 92%
Wind Speed: 1.2mph 4.6mph 0mph 1.5mph
Wind Gust: 0.7mph 2.6mph - -
WindWNW - - WNW
Pressure: 29.87 in 29.88 in 29.86 in -
Precipitation: 0 in      
Historical Graphs
 
 
Tabular Data for August 15, 2018
Time Temperature Dew Point Pressure Wind Wind Speed Wind Gust Humidity Rainfall Rate (Hourly) solar
00:04 74.1 °F 69.3 °F 29.87 in ENE 1.2 mph 1.2 mph 85% 0 in 0.00 W/m2
00:09 74 °F 68.9 °F 29.87 in ENE 3.5 mph 1.9 mph 84% 0 in 0.00 W/m2
00:14 73.9 °F 68.8 °F 29.87 in ENE 1.2 mph 0.1 mph 84% 0 in 0.00 W/m2
00:19 73.7 °F 68.2 °F 29.87 in Calm     83% 0 in 0.00 W/m2
00:24 73.5 °F 68 °F 29.87 in Calm     83% 0 in 0.00 W/m2
00:29 73.3 °F 67.8 °F 29.87 in Calm     83% 0 in 0.00 W/m2
00:34 73.1 °F 67.6 °F 29.87 in Calm     83% 0 in 0.00 W/m2
00:39 72.8 °F 67.3 °F 29.87 in Calm     83% 0 in 0.00 W/m2
00:44 72.6 °F 66.8 °F 29.87 in Calm     82% 0 in 0.00 W/m2
00:49 72.5 °F 66.7 °F 29.87 in Calm     82% 0 in 0.00 W/m2
00:54 72.4 °F 66.6 °F 29.88 in Calm     82% 0 in 0.00 W/m2
00:59 72.2 °F 66.4 °F 29.88 in Calm     82% 0 in 0.00 W/m2
01:04 72.1 °F 66.6 °F 29.88 in Calm     83% 0 in 0.00 W/m2
01:09 71.8 °F 66.4 °F 29.88 in Calm     83% 0 in 0.00 W/m2
01:14 71.6 °F 66.5 °F 29.88 in Calm     84% 0 in 0.00 W/m2
01:19 71.3 °F 66.2 °F 29.88 in Calm     84% 0 in 0.00 W/m2
01:24 70.9 °F 66.2 °F 29.88 in Calm     85% 0 in 0.00 W/m2
01:29 70.4 °F 66 °F 29.88 in Calm     86% 0 in 0.00 W/m2
01:34 70 °F 66 °F 29.88 in Calm     87% 0 in 0.00 W/m2
01:39 69.7 °F 66 °F 29.88 in Calm     88% 0 in 0.00 W/m2
01:44 69.4 °F 65.7 °F 29.88 in Calm     88% 0 in 0.00 W/m2
01:49 69.5 °F 67.1 °F 29.88 in Calm     92% 0 in 0.00 W/m2
01:54 69.9 °F 67.8 °F 29.87 in Calm     93% 0 in 0.00 W/m2
01:59 70.2 °F 68.1 °F 29.87 in Calm     93% 0 in 0.00 W/m2
02:04 70.4 °F 68.3 °F 29.87 in Calm     93% 0 in 0.00 W/m2
02:09 70.5 °F 68.7 °F 29.87 in Calm     94% 0 in 0.00 W/m2
02:14 70.6 °F 68.8 °F 29.87 in Calm     94% 0 in 0.00 W/m2
02:19 70.5 °F 68.7 °F 29.87 in Calm     94% 0 in 0.00 W/m2
02:24 70.6 °F 68.8 °F 29.87 in Calm     94% 0 in 0.00 W/m2
02:29 70.5 °F 68.7 °F 29.87 in Calm   0.1 mph 94% 0 in 0.00 W/m2
02:34 70.6 °F 69.1 °F 29.87 in Calm     95% 0 in 0.00 W/m2
02:39 70.7 °F 69.2 °F 29.87 in NNW 3.5 mph 2 mph 95% 0 in 0.00 W/m2
02:44 70.8 °F 69.3 °F 29.87 in NW 3.5 mph 1.4 mph 95% 0 in 0.00 W/m2
02:49 70.8 °F 69.3 °F 29.87 in NW 4.6 mph 2.4 mph 95% 0 in 0.00 W/m2
02:54 70.8 °F 69.3 °F 29.87 in NW 2.3 mph 0.9 mph 95% 0 in 0.00 W/m2
02:59 70.7 °F 69.2 °F 29.87 in NW 2 mph 0.7 mph 95% 0 in 0.00 W/m2
03:04 70.8 °F 69.3 °F 29.87 in WNW 3.5 mph 0.3 mph 95% 0 in 0.00 W/m2
03:09 70.8 °F 69.3 °F 29.87 in WNW 1.2 mph 0.3 mph 95% 0 in 0.00 W/m2
03:14 70.7 °F 69.2 °F 29.87 in WNW 3.5 mph 1.5 mph 95% 0 in 0.00 W/m2
03:19 70.7 °F 69.2 °F 29.87 in NW 3.5 mph 2.5 mph 95% 0 in 0.00 W/m2
03:24 70.8 °F 69.6 °F 29.87 in WNW 4 mph 2.3 mph 96% 0 in 0.00 W/m2
03:29 70.8 °F 69.6 °F 29.87 in North 3.5 mph 2.4 mph 96% 0 in 0.00 W/m2
03:34 70.8 °F 69.6 °F 29.87 in NW 4.6 mph 1.5 mph 96% 0 in 0.00 W/m2
03:39 70.8 °F 69.6 °F 29.87 in NW 3.5 mph 0.1 mph 96% 0 in 0.00 W/m2
03:44 70.8 °F 69.6 °F 29.87 in NNW 3.5 mph 1.9 mph 96% 0 in 0.00 W/m2
03:49 70.8 °F 69.6 °F 29.87 in NW 3 mph 1.7 mph 96% 0 in 0.00 W/m2
03:54 70.8 °F 69.6 °F 29.87 in WNW 1.2 mph 0.2 mph 96% 0 in 0.00 W/m2
03:59 70.8 °F 69.6 °F 29.87 in WNW 2.3 mph 0.8 mph 96% 0 in 0.00 W/m2
04:04 70.8 °F 69.6 °F 29.87 in WNW 3.5 mph 1.6 mph 96% 0 in 0.00 W/m2
04:09 70.7 °F 69.5 °F 29.87 in Calm     96% 0 in 0.00 W/m2
04:14 70.6 °F 69.4 °F 29.86 in North 2.3 mph 1.3 mph 96% 0 in 0.00 W/m2
04:19 70.5 °F 69.3 °F 29.87 in NNW 3.5 mph 2.6 mph 96% 0 in 0.00 W/m2
04:24 70.4 °F 69.2 °F 29.87 in NNW 3.5 mph 1.7 mph 96% 0 in 0.00 W/m2
04:29 70.4 °F 69.2 °F 29.87 in NW 2.3 mph 2.1 mph 96% 0 in 0.00 W/m2
04:34 70.3 °F 69.1 °F 29.87 in WNW 2.3 mph 1.7 mph 96% 0 in 0.00 W/m2
04:39 70.2 °F 69 °F 29.87 in WNW 3.5 mph   96% 0 in 0.00 W/m2
04:44 70.1 °F 68.9 °F 29.87 in WNW 2 mph 0.2 mph 96% 0 in 0.00 W/m2
04:49 70 °F 68.8 °F 29.87 in Calm     96% 0 in 0.00 W/m2
04:54 69.9 °F 68.7 °F 29.87 in NNW 1.2 mph 1.2 mph 96% 0 in 0.00 W/m2
04:59 69.8 °F 68.6 °F 29.87 in NW 2.3 mph 1.2 mph 96% 0 in 0.00 W/m2
05:04 69.8 °F 68.6 °F 29.87 in NW 3 mph 1.5 mph 96% 0 in 0.00 W/m2
05:09 69.7 °F 68.5 °F 29.87 in NW 1.2 mph 1.2 mph 96% 0 in 0.00 W/m2
05:14 69.7 °F 68.5 °F 29.87 in NW 3.5 mph 0.1 mph 96% 0 in 0.00 W/m2
05:19 69.6 °F 68.4 °F 29.87 in NW 1.2 mph 0.3 mph 96% 0 in 0.00 W/m2
05:24 69.5 °F 68.3 °F 29.87 in WNW 1.2 mph 0.9 mph 96% 0 in 0.00 W/m2
05:29 69.5 °F 68.3 °F 29.87 in WNW 1.2 mph 0.7 mph 96% 0 in 0.00 W/m2
west seneca weather
Compliments of Weather Underground - 2 mb